Year,Month,Day,Hour,Minute,Value (Times are PST for temperature in C)
2016,04,23,00,00,13.10
2016,04,23,00,01,13.10
2016,04,23,00,02,13.10
2016,04,23,00,03,13.00
2016,04,23,00,04,13.00
2016,04,23,00,05,13.10
2016,04,23,00,06,13.10
2016,04,23,00,07,13.10
2016,04,23,00,08,13.10
2016,04,23,00,09,13.10
2016,04,23,00,10,13.10
2016,04,23,00,11,13.10
2016,04,23,00,12,13.10
2016,04,23,00,13,13.10
2016,04,23,00,14,13.10
2016,04,23,00,15,13.10
2016,04,23,00,16,13.10
2016,04,23,00,17,13.10
2016,04,23,00,18,13.10
2016,04,23,00,19,13.10
2016,04,23,00,20,13.10
2016,04,23,00,21,13.00
2016,04,23,00,22,13.00
2016,04,23,00,23,13.00
2016,04,23,00,24,12.90
2016,04,23,00,25,12.90
2016,04,23,00,26,12.90
2016,04,23,00,27,12.80
2016,04,23,00,28,12.80
2016,04,23,00,29,12.80
2016,04,23,00,30,12.80
2016,04,23,00,31,12.70
2016,04,23,00,32,12.70
2016,04,23,00,33,12.60
2016,04,23,00,34,12.60
2016,04,23,00,35,12.60
2016,04,23,00,36,12.60
2016,04,23,00,37,12.60
2016,04,23,00,38,12.60
2016,04,23,00,39,12.60
2016,04,23,00,40,12.60
2016,04,23,00,41,12.60
2016,04,23,00,42,12.60
2016,04,23,00,43,12.50
2016,04,23,00,44,12.50
2016,04,23,00,45,12.60
2016,04,23,00,46,12.60
2016,04,23,00,47,12.60
2016,04,23,00,48,12.60
2016,04,23,00,49,12.60
2016,04,23,00,50,12.60
2016,04,23,00,51,12.60
2016,04,23,00,52,12.60
2016,04,23,00,53,12.60
2016,04,23,00,54,12.60
2016,04,23,00,55,12.60
2016,04,23,00,56,12.60
2016,04,23,00,57,12.60
2016,04,23,00,58,12.50
2016,04,23,00,59,12.50
2016,04,23,01,00,12.50
2016,04,23,01,01,12.50
2016,04,23,01,02,12.50
2016,04,23,01,03,12.60
2016,04,23,01,04,12.60
2016,04,23,01,05,12.60
2016,04,23,01,06,12.60
2016,04,23,01,07,12.60
2016,04,23,01,08,12.60
2016,04,23,01,09,12.60
2016,04,23,01,10,12.60
2016,04,23,01,11,12.60
2016,04,23,01,12,12.60
2016,04,23,01,13,12.50
2016,04,23,01,14,12.50
2016,04,23,01,15,12.50
2016,04,23,01,16,12.50
2016,04,23,01,17,12.60
2016,04,23,01,18,12.50
2016,04,23,01,19,12.50
2016,04,23,01,20,12.50
2016,04,23,01,21,12.50
2016,04,23,01,22,12.50
2016,04,23,01,23,12.50
2016,04,23,01,24,12.50
2016,04,23,01,25,12.50
2016,04,23,01,26,12.40
2016,04,23,01,27,12.40
2016,04,23,01,28,12.40
2016,04,23,01,29,12.40
2016,04,23,01,30,12.40
2016,04,23,01,31,12.40
2016,04,23,01,32,12.40
2016,04,23,01,33,12.40
2016,04,23,01,34,12.40
2016,04,23,01,35,12.40
2016,04,23,01,36,12.40
2016,04,23,01,37,12.50
2016,04,23,01,38,12.50
2016,04,23,01,39,12.50
2016,04,23,01,40,12.50
2016,04,23,01,41,12.50
2016,04,23,01,42,12.50
2016,04,23,01,43,12.50
2016,04,23,01,44,12.50
2016,04,23,01,45,12.50
2016,04,23,01,46,12.50
2016,04,23,01,47,12.50
2016,04,23,01,48,12.50
2016,04,23,01,49,12.50
2016,04,23,01,50,12.50
2016,04,23,01,51,12.50
2016,04,23,01,52,12.40
2016,04,23,01,53,12.40
2016,04,23,01,54,12.40
2016,04,23,01,55,12.40
2016,04,23,01,56,12.30
2016,04,23,01,57,12.30
2016,04,23,01,58,12.30
2016,04,23,01,59,12.30
2016,04,23,02,00,12.20
2016,04,23,02,01,12.20
2016,04,23,02,02,12.20
2016,04,23,02,03,12.20
2016,04,23,02,04,12.20
2016,04,23,02,05,12.20
2016,04,23,02,06,12.10
2016,04,23,02,07,12.10
2016,04,23,02,08,12.10
2016,04,23,02,09,12.10
2016,04,23,02,10,12.00
2016,04,23,02,11,12.00
2016,04,23,02,12,12.00
2016,04,23,02,13,11.90
2016,04,23,02,14,11.90
2016,04,23,02,15,11.90
2016,04,23,02,16,12.00
2016,04,23,02,17,12.00
2016,04,23,02,18,12.00
2016,04,23,02,19,12.00
2016,04,23,02,20,12.00
2016,04,23,02,21,12.00
2016,04,23,02,22,12.00
2016,04,23,02,23,12.00
2016,04,23,02,24,12.00
2016,04,23,02,25,12.10
2016,04,23,02,26,12.10
2016,04,23,02,27,12.10
2016,04,23,02,28,12.10
2016,04,23,02,29,12.10
2016,04,23,02,30,12.10
2016,04,23,02,31,12.10
2016,04,23,02,32,12.10
2016,04,23,02,33,12.10
2016,04,23,02,34,12.10
2016,04,23,02,35,12.10
2016,04,23,02,36,12.10
2016,04,23,02,37,12.10
2016,04,23,02,38,12.10
2016,04,23,02,39,12.10
2016,04,23,02,40,12.10
2016,04,23,02,41,12.10
2016,04,23,02,42,12.10
2016,04,23,02,43,12.10
2016,04,23,02,44,12.10
2016,04,23,02,45,12.10
2016,04,23,02,46,12.10
2016,04,23,02,47,12.10
2016,04,23,02,48,12.10
2016,04,23,02,49,12.00
2016,04,23,02,50,12.00
2016,04,23,02,51,12.00
2016,04,23,02,52,12.00
2016,04,23,02,53,12.00
2016,04,23,02,54,12.10
2016,04,23,02,55,12.10
2016,04,23,02,56,12.20
2016,04,23,02,57,12.20
2016,04,23,02,58,12.20
2016,04,23,02,59,12.30
2016,04,23,03,00,12.30
2016,04,23,03,01,12.30
2016,04,23,03,02,12.40
2016,04,23,03,03,12.40
2016,04,23,03,04,12.40
2016,04,23,03,05,12.40
2016,04,23,03,06,12.50
2016,04,23,03,07,12.50
2016,04,23,03,08,12.50
2016,04,23,03,09,12.50
2016,04,23,03,10,12.50
2016,04,23,03,11,12.60
2016,04,23,03,12,12.60
2016,04,23,03,13,12.60
2016,04,23,03,14,12.50
2016,04,23,03,15,12.50
2016,04,23,03,16,12.50
2016,04,23,03,17,12.50
2016,04,23,03,18,12.50
2016,04,23,03,19,12.50
2016,04,23,03,20,12.50
2016,04,23,03,21,12.50
2016,04,23,03,22,12.50
2016,04,23,03,23,12.50
2016,04,23,03,24,12.50
2016,04,23,03,25,12.50
2016,04,23,03,26,12.40
2016,04,23,03,27,12.40
2016,04,23,03,28,12.40
2016,04,23,03,29,12.40
2016,04,23,03,30,12.40
2016,04,23,03,31,12.40
2016,04,23,03,32,12.40
2016,04,23,03,33,12.40
2016,04,23,03,34,12.40
2016,04,23,03,35,12.40
2016,04,23,03,36,12.40
2016,04,23,03,37,12.50
2016,04,23,03,38,12.50
2016,04,23,03,39,12.50
2016,04,23,03,40,12.60
2016,04,23,03,41,12.60
2016,04,23,03,42,12.60
2016,04,23,03,43,12.60
2016,04,23,03,44,12.60
2016,04,23,03,45,12.60
2016,04,23,03,46,12.60
2016,04,23,03,47,12.60
2016,04,23,03,48,12.60
2016,04,23,03,49,12.60
2016,04,23,03,50,12.60
2016,04,23,03,51,12.60
2016,04,23,03,52,12.60
2016,04,23,03,53,12.60
2016,04,23,03,54,12.60
2016,04,23,03,55,12.60
2016,04,23,03,56,12.50
2016,04,23,03,57,12.50
2016,04,23,03,58,12.60
2016,04,23,03,59,12.50
2016,04,23,04,00,12.50
2016,04,23,04,01,12.50
2016,04,23,04,02,12.50
2016,04,23,04,03,12.50
2016,04,23,04,04,12.50
2016,04,23,04,08,12.50
2016,04,23,04,09,12.50
2016,04,23,04,10,12.40
2016,04,23,04,11,12.40
2016,04,23,04,12,12.40
2016,04,23,04,13,12.40
2016,04,23,04,14,12.40
2016,04,23,04,15,12.30
2016,04,23,04,16,12.30
2016,04,23,04,17,12.30
2016,04,23,04,18,12.30
2016,04,23,04,19,12.30
2016,04,23,04,20,12.30
2016,04,23,04,21,12.30
2016,04,23,04,22,12.30
2016,04,23,04,23,12.20
2016,04,23,04,24,12.20
2016,04,23,04,25,12.20
2016,04,23,04,26,12.20
2016,04,23,04,27,12.20
2016,04,23,04,28,12.30
2016,04,23,04,29,12.30
2016,04,23,04,30,12.30
2016,04,23,04,31,12.30
2016,04,23,04,32,12.30
2016,04,23,04,33,12.40
2016,04,23,04,34,12.40
2016,04,23,04,35,12.40
2016,04,23,04,36,12.40
2016,04,23,04,37,12.40
2016,04,23,04,38,12.40
2016,04,23,04,39,12.40
2016,04,23,04,40,12.40
2016,04,23,04,41,12.40
2016,04,23,04,42,12.40
2016,04,23,04,43,12.40
2016,04,23,04,44,12.40
2016,04,23,04,45,12.40
2016,04,23,04,46,12.50
2016,04,23,04,47,12.50
2016,04,23,04,48,12.50
2016,04,23,04,49,12.50
2016,04,23,04,50,12.50
2016,04,23,04,51,12.50
2016,04,23,04,52,12.50
2016,04,23,04,53,12.50
2016,04,23,04,54,12.50
2016,04,23,04,55,12.50
2016,04,23,04,56,12.40
2016,04,23,04,57,12.40
2016,04,23,04,58,12.40
2016,04,23,04,59,12.40
2016,04,23,05,00,12.40
2016,04,23,05,01,12.40
2016,04,23,05,02,12.40
2016,04,23,05,03,12.40
2016,04,23,05,04,12.30
2016,04,23,05,05,12.30
2016,04,23,05,06,12.30
2016,04,23,05,07,12.30
2016,04,23,05,08,12.30
2016,04,23,05,09,12.20
2016,04,23,05,10,12.20
2016,04,23,05,11,12.20
2016,04,23,05,12,12.20
2016,04,23,05,13,12.20
2016,04,23,05,14,12.20
2016,04,23,05,15,12.20
2016,04,23,05,16,12.20
2016,04,23,05,17,12.10
2016,04,23,05,18,12.10
2016,04,23,05,19,12.10
2016,04,23,05,20,12.10
2016,04,23,05,21,12.10
2016,04,23,05,22,12.10
2016,04,23,05,23,12.00
2016,04,23,05,24,12.00
2016,04,23,05,25,12.00
2016,04,23,05,26,11.90
2016,04,23,05,27,11.90
2016,04,23,05,28,11.90
2016,04,23,05,29,11.90
2016,04,23,05,30,11.90
2016,04,23,05,31,11.90
2016,04,23,05,32,11.90
2016,04,23,05,33,11.90
2016,04,23,05,34,11.80
2016,04,23,05,35,11.80
2016,04,23,05,36,11.80
2016,04,23,05,37,11.80
2016,04,23,05,38,11.70
2016,04,23,05,39,11.70
2016,04,23,05,40,11.70
2016,04,23,05,41,11.70
2016,04,23,05,42,11.70
2016,04,23,05,43,11.60
2016,04,23,05,44,11.60
2016,04,23,05,45,11.60
2016,04,23,05,46,11.50
2016,04,23,05,47,11.50
2016,04,23,05,48,11.40
2016,04,23,05,49,11.40
2016,04,23,05,50,11.40
2016,04,23,05,51,11.40
2016,04,23,05,52,11.40
2016,04,23,05,53,11.30
2016,04,23,05,54,11.30
2016,04,23,05,55,11.30
2016,04,23,05,56,11.30
2016,04,23,05,57,11.30
2016,04,23,05,58,11.30
2016,04,23,05,59,11.20
2016,04,23,06,00,11.20
2016,04,23,06,01,11.20
2016,04,23,06,02,11.10
2016,04,23,06,03,11.10
2016,04,23,06,04,11.10
2016,04,23,06,05,11.00
2016,04,23,06,06,11.00
2016,04,23,06,07,10.90
2016,04,23,06,08,10.90
2016,04,23,06,09,10.90
2016,04,23,06,10,10.80
2016,04,23,06,11,10.80
2016,04,23,06,12,10.80
2016,04,23,06,13,10.80
2016,04,23,06,14,10.70
2016,04,23,06,15,10.70
2016,04,23,06,16,10.70
2016,04,23,06,17,10.70
2016,04,23,06,18,10.70
2016,04,23,06,19,10.70
2016,04,23,06,20,10.70
2016,04,23,06,21,10.70
2016,04,23,06,22,10.70
2016,04,23,06,23,10.70
2016,04,23,06,24,10.70
2016,04,23,06,25,10.60
2016,04,23,06,26,10.60
2016,04,23,06,27,10.60
2016,04,23,06,28,10.60
2016,04,23,06,29,10.60
2016,04,23,06,30,10.50
2016,04,23,06,31,10.50
2016,04,23,06,32,10.50
2016,04,23,06,33,10.50
2016,04,23,06,34,10.50
2016,04,23,06,35,10.50
2016,04,23,06,36,10.50
2016,04,23,06,37,10.50
2016,04,23,06,38,10.50
2016,04,23,06,39,10.50
2016,04,23,06,40,10.50
2016,04,23,06,41,10.40
2016,04,23,06,42,10.40
2016,04,23,06,43,10.40
2016,04,23,06,44,10.40
2016,04,23,06,45,10.40
2016,04,23,06,46,10.30
2016,04,23,06,47,10.30
2016,04,23,06,48,10.30
2016,04,23,06,49,10.30
2016,04,23,06,50,10.30
2016,04,23,06,51,10.30
2016,04,23,06,52,10.30
2016,04,23,06,53,10.40
2016,04,23,06,54,10.40
2016,04,23,06,55,10.40
2016,04,23,06,56,10.40
2016,04,23,06,57,10.50
2016,04,23,06,58,10.50
2016,04,23,06,59,10.60
2016,04,23,07,00,10.70
2016,04,23,07,01,10.80
2016,04,23,07,02,10.80
2016,04,23,07,03,10.90
2016,04,23,07,04,10.90
2016,04,23,07,05,11.00
2016,04,23,07,06,11.00
2016,04,23,07,07,11.10
2016,04,23,07,08,11.20
2016,04,23,07,09,11.30
2016,04,23,07,10,11.30
2016,04,23,07,11,11.40
2016,04,23,07,12,11.40
2016,04,23,07,13,11.50
2016,04,23,07,14,11.50
2016,04,23,07,15,11.60
2016,04,23,07,16,11.60
2016,04,23,07,17,11.70
2016,04,23,07,18,11.80
2016,04,23,07,19,11.80
2016,04,23,07,20,11.90
2016,04,23,07,21,12.00
2016,04,23,07,22,12.10
2016,04,23,07,23,12.20
2016,04,23,07,24,12.20
2016,04,23,07,25,12.30
2016,04,23,07,26,12.30
2016,04,23,07,27,12.40
2016,04,23,07,28,12.40
2016,04,23,07,29,12.40
2016,04,23,07,30,12.50
2016,04,23,07,31,12.50
2016,04,23,07,32,12.60
2016,04,23,07,33,12.60
2016,04,23,07,34,12.60
2016,04,23,07,35,12.60
2016,04,23,07,36,12.60
2016,04,23,07,37,12.60
2016,04,23,07,38,12.60
2016,04,23,07,39,12.60
2016,04,23,07,40,12.60
2016,04,23,07,41,12.60
2016,04,23,07,42,12.70
2016,04,23,07,43,12.70
2016,04,23,07,44,12.70
2016,04,23,07,45,12.70
2016,04,23,07,46,12.70
2016,04,23,07,47,12.70
2016,04,23,07,48,12.70
2016,04,23,07,49,12.80
2016,04,23,07,50,12.80
2016,04,23,07,51,12.80
2016,04,23,07,52,12.80
2016,04,23,07,53,12.80
2016,04,23,07,54,12.80
2016,04,23,07,55,12.80
2016,04,23,07,56,12.90
2016,04,23,07,57,12.90
2016,04,23,07,58,12.90
2016,04,23,07,59,12.90
2016,04,23,08,00,12.90
2016,04,23,08,01,12.90
2016,04,23,08,02,12.90
2016,04,23,08,03,12.90
2016,04,23,08,04,12.90
2016,04,23,08,05,12.90
2016,04,23,08,06,12.90
2016,04,23,08,07,12.90
2016,04,23,08,08,12.90
2016,04,23,08,09,12.90
2016,04,23,08,10,12.90
2016,04,23,08,11,12.90
2016,04,23,08,12,12.90
2016,04,23,08,13,12.90
2016,04,23,08,14,12.90
2016,04,23,08,15,12.90
2016,04,23,08,16,12.90
2016,04,23,08,17,12.90
2016,04,23,08,18,13.00
2016,04,23,08,19,13.00
2016,04,23,08,20,13.00
2016,04,23,08,21,13.00
2016,04,23,08,22,13.00
2016,04,23,08,23,13.00
2016,04,23,08,24,13.00
2016,04,23,08,25,13.00
2016,04,23,08,26,13.00
2016,04,23,08,27,13.10
2016,04,23,08,28,13.10
2016,04,23,08,29,13.10
2016,04,23,08,30,13.10
2016,04,23,08,31,13.10
2016,04,23,08,32,13.10
2016,04,23,08,33,13.10
2016,04,23,08,34,13.10
2016,04,23,08,35,13.20
2016,04,23,08,36,13.20
2016,04,23,08,37,13.20
2016,04,23,08,38,13.30
2016,04,23,08,39,13.40
2016,04,23,08,40,13.40
2016,04,23,08,41,13.60
2016,04,23,08,42,13.70
2016,04,23,08,43,13.80
2016,04,23,08,44,14.00
2016,04,23,08,45,14.10
2016,04,23,08,46,14.20
2016,04,23,08,47,14.30
2016,04,23,08,48,14.50
2016,04,23,08,49,14.60
2016,04,23,08,50,14.70
2016,04,23,08,51,14.80
2016,04,23,08,52,14.80
2016,04,23,08,53,14.90
2016,04,23,08,54,15.00
2016,04,23,08,55,15.00
2016,04,23,08,56,14.90
2016,04,23,08,57,14.90
2016,04,23,08,58,14.90
2016,04,23,08,59,15.00
2016,04,23,09,00,15.10
2016,04,23,09,01,15.10
2016,04,23,09,02,15.20
2016,04,23,09,03,15.20
2016,04,23,09,04,15.20
2016,04,23,09,05,15.20
2016,04,23,09,06,15.20
2016,04,23,09,07,15.20
2016,04,23,09,08,15.30
2016,04,23,09,09,15.30
2016,04,23,09,10,15.30
2016,04,23,09,11,15.40
2016,04,23,09,12,15.50
2016,04,23,09,13,15.50
2016,04,23,09,14,15.60
2016,04,23,09,15,15.60
2016,04,23,09,16,15.70
2016,04,23,09,17,15.70
2016,04,23,09,18,15.70
2016,04,23,09,19,15.80
2016,04,23,09,20,15.80
2016,04,23,09,21,15.80
2016,04,23,09,22,15.90
2016,04,23,09,23,15.90
2016,04,23,09,24,15.90
2016,04,23,09,25,15.90
2016,04,23,09,26,16.00
2016,04,23,09,27,16.00
2016,04,23,09,28,16.00
2016,04,23,09,29,16.10
2016,04,23,09,30,16.10
2016,04,23,09,31,16.10
2016,04,23,09,32,16.00
2016,04,23,09,33,16.00
2016,04,23,09,34,15.90
2016,04,23,09,35,15.90
2016,04,23,09,36,15.90
2016,04,23,09,37,15.90
2016,04,23,09,38,15.90
2016,04,23,09,39,15.90
2016,04,23,09,40,15.90
2016,04,23,09,41,16.00
2016,04,23,09,42,16.10
2016,04,23,09,43,16.10
2016,04,23,09,44,16.10
2016,04,23,09,45,16.10
2016,04,23,09,46,16.00
2016,04,23,09,47,16.00
2016,04,23,09,48,16.00
2016,04,23,09,49,16.00
2016,04,23,09,50,16.10
2016,04,23,09,51,16.10
2016,04,23,09,52,16.10
2016,04,23,09,53,16.20
2016,04,23,09,54,16.20
2016,04,23,09,55,16.20
2016,04,23,09,56,16.30
2016,04,23,09,57,16.40
2016,04,23,09,58,16.50
2016,04,23,09,59,16.60
2016,04,23,10,00,16.60
2016,04,23,10,01,16.60
2016,04,23,10,02,16.60
2016,04,23,10,03,16.50
2016,04,23,10,04,16.50
2016,04,23,10,05,16.40
2016,04,23,10,06,16.40
2016,04,23,10,07,16.40
2016,04,23,10,08,16.40
2016,04,23,10,09,16.30
2016,04,23,10,10,16.30
2016,04,23,10,11,16.30
2016,04,23,10,12,16.20
2016,04,23,10,13,16.20
2016,04,23,10,14,16.20
2016,04,23,10,15,16.20
2016,04,23,10,16,16.30
2016,04,23,10,17,16.30
2016,04,23,10,18,16.30
2016,04,23,10,19,16.40
2016,04,23,10,20,16.30
2016,04,23,10,21,16.30
2016,04,23,10,22,16.20
2016,04,23,10,23,16.20
2016,04,23,10,24,16.10
2016,04,23,10,25,16.10
2016,04,23,10,26,16.10
2016,04,23,10,27,16.10
2016,04,23,10,28,16.10
2016,04,23,10,29,16.10
2016,04,23,10,30,16.00
2016,04,23,10,31,16.00
2016,04,23,10,32,16.00
2016,04,23,10,33,16.10
2016,04,23,10,34,16.10
2016,04,23,10,35,16.10
2016,04,23,10,36,16.10
2016,04,23,10,37,16.20
2016,04,23,10,38,16.20
2016,04,23,10,39,16.20
2016,04,23,10,40,16.20
2016,04,23,10,41,16.20
2016,04,23,10,42,16.20
2016,04,23,10,43,16.20
2016,04,23,10,44,16.20
2016,04,23,10,45,16.20
2016,04,23,10,46,16.20
2016,04,23,10,47,16.10
2016,04,23,10,48,16.10
2016,04,23,10,49,16.10
2016,04,23,10,50,16.00
2016,04,23,10,51,15.90
2016,04,23,10,52,15.90
2016,04,23,10,53,15.90
2016,04,23,10,54,15.90
2016,04,23,10,55,15.90
2016,04,23,10,56,15.90
2016,04,23,10,57,15.90
2016,04,23,10,58,15.90
2016,04,23,10,59,15.80
2016,04,23,11,00,15.80
2016,04,23,11,01,15.80
2016,04,23,11,02,15.90
2016,04,23,11,03,15.90
2016,04,23,11,04,15.90
2016,04,23,11,05,16.00
2016,04,23,11,06,16.00
2016,04,23,11,07,16.10
2016,04,23,11,08,16.10
2016,04,23,11,09,16.10
2016,04,23,11,10,16.10
2016,04,23,11,11,16.10
2016,04,23,11,12,16.10
2016,04,23,11,13,16.10
2016,04,23,11,14,16.20
2016,04,23,11,15,16.20
2016,04,23,11,16,16.20
2016,04,23,11,17,16.20
2016,04,23,11,18,16.30
2016,04,23,11,19,16.30
2016,04,23,11,20,16.30
2016,04,23,11,21,16.30
2016,04,23,11,22,16.30
2016,04,23,11,23,16.30
2016,04,23,11,24,16.30
2016,04,23,11,25,16.40
2016,04,23,11,26,16.50
2016,04,23,11,27,16.50
2016,04,23,11,28,16.70
2016,04,23,11,29,16.80
2016,04,23,11,30,16.80
2016,04,23,11,31,16.90
2016,04,23,11,32,16.90
2016,04,23,11,33,17.00
2016,04,23,11,34,17.00
2016,04,23,11,35,17.00
2016,04,23,11,36,17.10
2016,04,23,11,37,17.10
2016,04,23,11,38,17.00
2016,04,23,11,39,16.90
2016,04,23,11,40,16.90
2016,04,23,11,41,16.80
2016,04,23,11,42,16.80
2016,04,23,11,43,16.80
2016,04,23,11,44,16.80
2016,04,23,11,45,16.90
2016,04,23,11,46,16.90
2016,04,23,11,47,17.00
2016,04,23,11,48,17.00
2016,04,23,11,49,16.90
2016,04,23,11,50,16.80
2016,04,23,11,51,16.80
2016,04,23,11,52,16.70
2016,04,23,11,53,16.60
2016,04,23,11,54,16.50
2016,04,23,11,55,16.40
2016,04,23,11,56,16.30
2016,04,23,11,57,16.30
2016,04,23,11,58,16.20
2016,04,23,11,59,16.20
2016,04,23,12,00,16.20
2016,04,23,12,01,16.20
2016,04,23,12,02,16.30
2016,04,23,12,03,16.40
2016,04,23,12,04,16.50
2016,04,23,12,05,16.50
2016,04,23,12,06,16.60
2016,04,23,12,07,16.60
2016,04,23,12,08,16.50
2016,04,23,12,09,16.50
2016,04,23,12,10,16.40
2016,04,23,12,11,16.40
2016,04,23,12,12,16.30
2016,04,23,12,13,16.20
2016,04,23,12,14,16.20
2016,04,23,12,15,16.20
2016,04,23,12,16,16.20
2016,04,23,12,17,16.20
2016,04,23,12,18,16.20
2016,04,23,12,19,16.20
2016,04,23,12,20,16.20
2016,04,23,12,21,16.20
2016,04,23,12,22,16.20
2016,04,23,12,23,16.10
2016,04,23,12,24,16.10
2016,04,23,12,25,16.10
2016,04,23,12,26,16.10
2016,04,23,12,27,16.10
2016,04,23,12,28,16.10
2016,04,23,12,29,16.10
2016,04,23,12,30,16.00
2016,04,23,12,31,16.00
2016,04,23,12,32,15.80
2016,04,23,12,33,15.70
2016,04,23,12,34,15.70
2016,04,23,12,35,15.60
2016,04,23,12,36,15.50
2016,04,23,12,37,15.40
2016,04,23,12,38,15.40
2016,04,23,12,39,15.40
2016,04,23,12,40,15.40
2016,04,23,12,41,15.40
2016,04,23,12,42,15.40
2016,04,23,12,43,15.40
2016,04,23,12,44,15.40
2016,04,23,12,45,15.40
2016,04,23,12,46,15.40
2016,04,23,12,47,15.40
2016,04,23,12,48,15.50
2016,04,23,12,49,15.50
2016,04,23,12,50,15.50
2016,04,23,12,51,15.60
2016,04,23,12,52,15.60
2016,04,23,12,53,15.50
2016,04,23,12,54,15.50
2016,04,23,12,55,15.40
2016,04,23,12,56,15.40
2016,04,23,12,57,15.30
2016,04,23,12,58,15.30
2016,04,23,12,59,15.20
2016,04,23,13,00,15.10
2016,04,23,13,01,15.00
2016,04,23,13,02,15.00
2016,04,23,13,03,14.90
2016,04,23,13,04,14.90
2016,04,23,13,05,14.80
2016,04,23,13,06,14.80
2016,04,23,13,07,14.80
2016,04,23,13,08,14.70
2016,04,23,13,09,14.70
2016,04,23,13,10,14.70
2016,04,23,13,11,14.70
2016,04,23,13,12,14.60
2016,04,23,13,13,14.60
2016,04,23,13,14,14.60
2016,04,23,13,15,14.60
2016,04,23,13,16,14.60
2016,04,23,13,17,14.60
2016,04,23,13,18,14.70
2016,04,23,13,19,14.60
2016,04,23,13,20,14.60
2016,04,23,13,21,14.50
2016,04,23,13,22,14.50
2016,04,23,13,23,14.40
2016,04,23,13,24,14.30
2016,04,23,13,25,14.30
2016,04,23,13,26,14.30
2016,04,23,13,27,14.30
2016,04,23,13,28,14.30
2016,04,23,13,29,14.40
2016,04,23,13,30,14.40
2016,04,23,13,31,14.40
2016,04,23,13,32,14.50
2016,04,23,13,33,14.40
2016,04,23,13,34,14.40
2016,04,23,13,35,14.40
2016,04,23,13,36,14.40
2016,04,23,13,37,14.40
2016,04,23,13,38,14.40
2016,04,23,13,39,14.40
2016,04,23,13,40,14.40
2016,04,23,13,41,14.30
2016,04,23,13,42,14.30
2016,04,23,13,43,14.30
2016,04,23,13,44,14.40
2016,04,23,13,45,14.40
2016,04,23,13,46,14.40
2016,04,23,13,47,14.40
2016,04,23,13,48,14.40
2016,04,23,13,49,14.40
2016,04,23,13,50,14.40
2016,04,23,13,51,14.50
2016,04,23,13,52,14.60
2016,04,23,13,53,14.60
2016,04,23,13,54,14.60
2016,04,23,13,55,14.60
2016,04,23,13,56,14.60
2016,04,23,13,57,14.70
2016,04,23,13,58,14.70
2016,04,23,13,59,14.70
2016,04,23,14,00,14.70
2016,04,23,14,01,14.70
2016,04,23,14,02,14.70
2016,04,23,14,03,14.70
2016,04,23,14,04,14.70
2016,04,23,14,05,14.80
2016,04,23,14,06,14.80
2016,04,23,14,07,14.90
2016,04,23,14,08,14.90
2016,04,23,14,09,14.90
2016,04,23,14,10,14.90
2016,04,23,14,11,14.90
2016,04,23,14,12,14.90
2016,04,23,14,13,15.00
2016,04,23,14,14,15.00
2016,04,23,14,15,15.00
2016,04,23,14,16,15.10
2016,04,23,14,17,15.10
2016,04,23,14,18,15.20
2016,04,23,14,19,15.20
2016,04,23,14,20,15.30
2016,04,23,14,21,15.40
2016,04,23,14,22,15.50
2016,04,23,14,23,15.60
2016,04,23,14,24,15.60
2016,04,23,14,25,15.60
2016,04,23,14,26,15.60
2016,04,23,14,27,15.60
2016,04,23,14,28,15.60
2016,04,23,14,29,15.60
2016,04,23,14,30,15.50
2016,04,23,14,31,15.50
2016,04,23,14,32,15.50
2016,04,23,14,33,15.50
2016,04,23,14,34,15.50
2016,04,23,14,35,15.50
2016,04,23,14,36,15.50
2016,04,23,14,37,15.50
2016,04,23,14,38,15.60
2016,04,23,14,39,15.60
2016,04,23,14,40,15.60
2016,04,23,14,41,15.60
2016,04,23,14,42,15.50
2016,04,23,14,43,15.50
2016,04,23,14,44,15.50
2016,04,23,14,45,15.40
2016,04,23,14,46,15.40
2016,04,23,14,47,15.30
2016,04,23,14,48,15.30
2016,04,23,14,49,15.30
2016,04,23,14,50,15.30
2016,04,23,14,51,15.40
2016,04,23,14,52,15.40
2016,04,23,14,53,15.40
2016,04,23,14,54,15.30
2016,04,23,14,55,15.30
2016,04,23,14,56,15.30
2016,04,23,14,57,15.30
2016,04,23,14,58,15.30
2016,04,23,14,59,15.30
2016,04,23,15,00,15.30
2016,04,23,15,01,15.30
2016,04,23,15,02,15.20
2016,04,23,15,03,15.20
2016,04,23,15,04,15.10
2016,04,23,15,05,15.10
2016,04,23,15,06,15.10
2016,04,23,15,07,15.10
2016,04,23,15,08,15.10
2016,04,23,15,09,15.10
2016,04,23,15,10,15.10
2016,04,23,15,11,15.10
2016,04,23,15,12,15.20
2016,04,23,15,13,15.20
2016,04,23,15,14,15.20
2016,04,23,15,15,15.20
2016,04,23,15,16,15.20
2016,04,23,15,17,15.20
2016,04,23,15,18,15.10
2016,04,23,15,19,15.10
2016,04,23,15,20,15.00
2016,04,23,15,21,15.00
2016,04,23,15,22,14.90
2016,04,23,15,23,14.90
2016,04,23,15,24,14.90
2016,04,23,15,25,14.90
2016,04,23,15,26,14.90
2016,04,23,15,27,14.90
2016,04,23,15,28,14.80
2016,04,23,15,29,14.80
2016,04,23,15,30,14.80
2016,04,23,15,31,14.80
2016,04,23,15,32,14.80
2016,04,23,15,33,14.80
2016,04,23,15,34,14.80
2016,04,23,15,35,14.80
2016,04,23,15,36,14.80
2016,04,23,15,37,14.80
2016,04,23,15,38,14.80
2016,04,23,15,39,14.80
2016,04,23,15,40,14.80
2016,04,23,15,41,14.80
2016,04,23,15,42,14.80
2016,04,23,15,43,14.80
2016,04,23,15,44,14.90
2016,04,23,15,45,14.90
2016,04,23,15,46,14.90
2016,04,23,15,47,14.90
2016,04,23,15,48,14.90
2016,04,23,15,49,15.00
2016,04,23,15,50,15.00
2016,04,23,15,51,15.00
2016,04,23,15,52,14.90
2016,04,23,15,53,14.90
2016,04,23,15,54,14.90
2016,04,23,15,55,14.90
2016,04,23,15,56,14.90
2016,04,23,15,57,14.90
2016,04,23,15,58,14.90
2016,04,23,15,59,14.80
2016,04,23,16,00,14.80
2016,04,23,16,01,14.80
2016,04,23,16,02,14.80
2016,04,23,16,03,14.80
2016,04,23,16,04,14.80
2016,04,23,16,05,14.80
2016,04,23,16,06,14.80
2016,04,23,16,07,14.80
2016,04,23,16,08,14.80
2016,04,23,16,09,14.80
2016,04,23,16,10,14.80
2016,04,23,16,11,14.80
2016,04,23,16,12,14.80
2016,04,23,16,13,14.80
2016,04,23,16,14,14.80
2016,04,23,16,15,14.80
2016,04,23,16,16,14.80
2016,04,23,16,17,14.70
2016,04,23,16,18,14.70
2016,04,23,16,19,14.70
2016,04,23,16,20,14.70
2016,04,23,16,21,14.70
2016,04,23,16,22,14.70
2016,04,23,16,23,14.70
2016,04,23,16,24,14.70
2016,04,23,16,25,14.70
2016,04,23,16,26,14.70
2016,04,23,16,27,14.60
2016,04,23,16,28,14.60
2016,04,23,16,29,14.60
2016,04,23,16,30,14.60
2016,04,23,16,31,14.60
2016,04,23,16,32,14.60
2016,04,23,16,33,14.60
2016,04,23,16,34,14.60
2016,04,23,16,35,14.60
2016,04,23,16,36,14.60
2016,04,23,16,37,14.60
2016,04,23,16,38,14.60
2016,04,23,16,39,14.60
2016,04,23,16,40,14.60
2016,04,23,16,41,14.60
2016,04,23,16,42,14.60
2016,04,23,16,43,14.60
2016,04,23,16,44,14.50
2016,04,23,16,45,14.60
2016,04,23,16,46,14.50
2016,04,23,16,47,14.50
2016,04,23,16,48,14.50
2016,04,23,16,49,14.50
2016,04,23,16,50,14.50
2016,04,23,16,51,14.50
2016,04,23,16,52,14.50
2016,04,23,16,53,14.40
2016,04,23,16,54,14.40
2016,04,23,16,55,14.40
2016,04,23,16,56,14.40
2016,04,23,16,57,14.40
2016,04,23,16,58,14.40
2016,04,23,16,59,14.40
2016,04,23,17,00,14.40
2016,04,23,17,01,14.40
2016,04,23,17,02,14.40
2016,04,23,17,03,14.40
2016,04,23,17,04,14.40
2016,04,23,17,05,14.40
2016,04,23,17,06,14.40
2016,04,23,17,07,14.40
2016,04,23,17,08,14.40
2016,04,23,17,09,14.40
2016,04,23,17,10,14.40
2016,04,23,17,11,14.40
2016,04,23,17,12,14.40
2016,04,23,17,13,14.40
2016,04,23,17,14,14.40
2016,04,23,17,15,14.40
2016,04,23,17,16,14.40
2016,04,23,17,17,14.40
2016,04,23,17,18,14.40
2016,04,23,17,19,14.30
2016,04,23,17,20,14.30
2016,04,23,17,21,14.30
2016,04,23,17,22,14.30